Location: Beuerbach
(48.1459°N, 10.9174°E)
Time: 19:53:13
(UTC+00:00)

SL-16 R/B - Pass Details

Date: 10 August 2024
Orbit: 842 x 845 km, 71.0° (Epoch: 07 September)

Event Time Altitude Azimuth Distance (km) Brightness Sun altitude
Exits shadow 23:00:49 50° 99° (E) 1,074 2.6 -26.5°
Drops below altitude 10° 23:05:58 10° 36° (NE) 2,474 5.2 -26.6°
Sets 23:08:29 0° 32° (NNE) 3,414 6.2 -26.6°
